Flagstaff, AZ

9:35 PM MST on August 21, 2017 (GMT -0700)
Flagstaff Pulliam

Weather History for KFLG - June, 2013

Change the Weather History Date:

Tuesday, June 18, 2013

  Actual Average Record
Temperature  
Mean Temperature 61 °F 61 °F  
Max Temperature 82 °F 79 °F 92 °F (1940)
Min Temperature 40 °F 43 °F 24 °F (1995)
Degree Days  
Heating Degree Days 4 5  
Month to date heating degree days 33 130  
Since 1 July heating degree days 6694 6903  
Cooling Degree Days 0 1  
Month to date cooling degree days 16 1  
Year to date cooling degree days 16 1  
Growing Degree Days 12 (Base 50)    
Moisture  
Dew Point 14 °F    
Average Humidity 18    
Maximum Humidity 27    
Minimum Humidity 9    
Precipitation  
Precipitation 0.00 in 0.01 in 0.89 in (1949)
Month to date precipitation 0.01 0.18  
Year to date precipitation 5.24 8.29  
Snow  
Snow 0.00 in 0.00 in 0.00 in (2002)
Month to date snowfall 0.0 0.1  
Since 1 July snowfall 69.7 101.8  
Snow Depth 0.00 in    
Sea Level Pressure  
Sea Level Pressure 29.87 in    
Wind  
Wind Speed 10 mph (SW)    
Max Wind Speed 26 mph    
Max Gust Speed 36 mph    
Visibility 10 miles    
Events      
T = Trace of Precipitation, MM = Missing Value Source: NWS Daily Summary

Daily Weather History Graph

Daily Weather History Graph

Search for Another Location

Airport or City:

Trip Planner

Search our weather history database for the weather conditions in past years. The results will help you decide how hot, cold, wet, or windy it might be!

Date:

Astronomy

Jun. 18, 2013 Rise Set
Actual Time 5:12 AM MST 7:43 PM MST
Civil Twilight 4:42 AM MST 8:13 PM MST
Nautical Twilight 4:05 AM MST 8:50 PM MST
Astronomical Twilight 3:24 AM MST 9:31 PM MST
Moon 2:40 PM MST (6/18) 1:13 AM MST (6/18)
Length of Visible Light 15h 31m
Length of Day
14h 31m
Waxing Gibbous, 72% of the Moon is Illuminated
Jun 18
Waxing Gibbous
Jun 23
Full
Jun 29
Last Quarter
Jul 8
New
Jul 15
First Quarter

Hourly Weather History & Observations

Time (MST) Temp. Windchill Dew Point Humidity Pressure Visibility Wind Dir Wind Speed Gust Speed Precip Events Conditions
12:57 AM 46.9 °F - 8.1 °F 21% 29.92 in 10.0 mi Calm Calm - N/A   Clear
1:57 AM 46.0 °F - 8.1 °F 21% 29.91 in 10.0 mi Calm Calm - N/A   Clear
2:57 AM 44.1 °F - 8.1 °F 23% 29.90 in 10.0 mi Calm Calm - N/A   Clear
3:57 AM 45.0 °F 43.5 °F 8.1 °F 22% 29.90 in 10.0 mi SW 3.5 mph - N/A   Clear
4:57 AM 42.1 °F - 9.0 °F 26% 29.93 in 10.0 mi Calm Calm - N/A   Clear
5:57 AM 43.0 °F - 10.9 °F 27% 29.94 in 10.0 mi Calm Calm - N/A   Clear
6:57 AM 59.0 °F - 21.0 °F 23% 29.90 in 10.0 mi Calm Calm - N/A   Clear
7:57 AM 69.1 °F - 16.0 °F 13% 29.88 in 10.0 mi SW 6.9 mph - N/A   Clear
8:57 AM 72.0 °F - 18.0 °F 13% 29.91 in 10.0 mi SW 10.4 mph 20.7 mph N/A   Clear
9:57 AM 73.9 °F - 19.0 °F 13% 29.90 in 10.0 mi SSW 12.7 mph 24.2 mph N/A   Clear
10:57 AM 75.9 °F - 18.0 °F 11% 29.94 in 10.0 mi South 10.4 mph 25.3 mph N/A   Clear
11:57 AM 78.1 °F - 18.0 °F 10% 29.93 in 10.0 mi SSW 18.4 mph 27.6 mph N/A   Clear
12:57 PM 79.0 °F - 17.1 °F 10% 29.91 in 10.0 mi SSW 24.2 mph 32.2 mph N/A   Clear
1:57 PM 82.0 °F - 17.1 °F 9% 29.88 in 10.0 mi SW 17.3 mph 28.8 mph N/A   Clear
2:57 PM 80.1 °F - 17.1 °F 9% 29.88 in 10.0 mi SSW 19.6 mph 33.4 mph N/A   Clear
3:57 PM 80.1 °F - 16.0 °F 9% 29.86 in 10.0 mi SW 23.0 mph 28.8 mph N/A   Clear
4:57 PM 79.0 °F - 16.0 °F 9% 29.85 in 10.0 mi SW 17.3 mph 29.9 mph N/A   Clear
5:57 PM 77.0 °F - 15.1 °F 10% 29.85 in 10.0 mi SW 20.7 mph 29.9 mph N/A   Clear
6:57 PM 73.9 °F - 15.1 °F 11% 29.80 in 10.0 mi SSW 19.6 mph 23.0 mph N/A   Clear
7:57 PM 70.0 °F - 16.0 °F 13% 29.77 in 10.0 mi SW 12.7 mph - N/A   Partly Cloudy
8:57 PM 66.9 °F - 14.0 °F 13% 29.78 in 10.0 mi SW 10.4 mph - N/A   Overcast
9:57 PM 62.1 °F - 12.9 °F 15% 29.81 in 10.0 mi SW 8.1 mph - N/A   Clear
10:57 PM 55.0 °F - 12.0 °F 18% 29.81 in 10.0 mi Calm Calm - N/A   Clear
11:57 PM 50.0 °F - 10.9 °F 21% 29.81 in 10.0 mi Calm Calm - N/A   Clear